FW6147 Weather Reports


time (UTC)temp
F
wind
direction
speed
knots
gust
knots
rain 1hr
in
rain 24hr
in
rain mn
in
humidity
%
barometer
mb
20260507130556 47 0 0.0 0.0 0.00 0.00 0.00 62 1019.0
20260507130055 46 0 0.0 0.0 0.00 0.00 0.00 61 1018.9
20260507125555 46 0 0.0 0.0 0.00 0.00 0.00 61 1018.9
20260507125053 45 0 0.0 0.0 0.00 0.00 0.00 61 1018.9
20260507124553 45 0 0.0 0.0 0.00 0.00 0.00 62 1018.9
20260507124056 45 0 0.0 0.0 0.00 0.00 0.00 63 1018.9
20260507123555 45 0 0.0 4.3 0.00 0.00 0.00 62 1019.0
20260507123059 45 0 0.0 4.3 0.00 0.00 0.00 62 1018.9
20260507122555 45 236 2.6 4.3 0.00 0.00 0.00 62 1018.7
20260507122056 45 236 1.7 4.3 0.00 0.00 0.00 63 1018.8
20260507121557 45 236 2.6 4.3 0.00 0.00 0.00 62 1018.8
20260507121055 45 236 2.6 4.3 0.00 0.00 0.00 62 1018.7
20260507120553 45 236 0.0 0.0 0.00 0.00 0.00 62 1018.7
20260507120058 45 0 0.0 0.0 0.00 0.00 0.00 61 1018.6
20260507115557 46 0 0.0 0.0 0.00 0.00 0.00 59 1018.7
20260507115054 46 0 0.0 0.0 0.00 0.00 0.00 59 1018.7
20260507114558 45 0 0.0 0.0 0.00 0.00 0.00 60 1018.7
20260507114055 46 0 0.0 0.0 0.00 0.00 0.00 60 1018.7
20260507113556 46 0 0.0 0.0 0.00 0.00 0.00 59 1018.7
20260507113100 45 0 0.0 0.0 0.00 0.00 0.00 60 1018.8
20260507112556 45 0 0.0 0.0 0.00 0.00 0.00 61 1018.7
20260507112055 45 0 0.0 0.0 0.00 0.00 0.00 61 1018.8
20260507111553 45 0 0.0 0.0 0.00 0.00 0.00 60 1018.8
20260507111055 46 0 0.0 0.0 0.00 0.00 0.00 59 1018.8
20260507110556 46 0 0.0 0.0 0.00 0.00 0.00 60 1018.7
20260507110053 46 0 0.0 0.0 0.00 0.00 0.00 59 1018.7
20260507105555 47 0 0.0 0.0 0.00 0.00 0.00 58 1018.7
20260507105058 46 0 0.0 0.0 0.00 0.00 0.00 58 1018.5
20260507104552 46 0 0.0 0.0 0.00 0.00 0.00 59 1018.7
20260507104054 46 0 0.0 0.0 0.00 0.00 0.00 58 1018.7
20260507103556 47 0 0.0 0.0 0.00 0.00 0.00 57 1018.7
20260507103055 47 0 0.0 0.0 0.00 0.00 0.00 56 1018.7
20260507102555 46 0 0.0 0.0 0.00 0.00 0.00 58 1018.7
20260507102057 46 0 0.0 2.6 0.00 0.00 0.00 58 1018.7
20260507101556 47 0 0.0 2.6 0.00 0.00 0.00 57 1018.8
20260507101055 47 236 0.0 0.0 0.00 0.00 0.00 56 1018.8
20260507100552 46 0 0.0 0.0 0.00 0.00 0.00 58 1018.7
20260507100055 46 0 0.0 0.0 0.00 0.00 0.00 58 1018.8
20260507095556 46 0 0.0 0.0 0.00 0.00 0.00 58 1018.8
20260507095055 46 0 0.0 0.0 0.00 0.00 0.00 59 1018.9
20260507094555 46 0 0.0 0.0 0.00 0.00 0.00 59 1018.8
20260507094052 46 0 0.0 0.0 0.00 0.00 0.00 58 1018.9
20260507093559 47 0 0.0 0.0 0.00 0.00 0.00 57 1018.8
20260507093055 47 0 0.0 0.0 0.00 0.00 0.00 57 1018.8
20260507092553 47 0 0.0 0.0 0.00 0.00 0.00 56 1018.8
20260507092056 47 0 0.0 0.0 0.00 0.00 0.00 56 1018.9
20260507091556 47 0 0.0 0.0 0.00 0.00 0.00 56 1019.0
20260507091100 47 0 0.0 0.0 0.00 0.00 0.00 55 1019.0
20260507090557 48 0 0.0 0.0 0.00 0.00 0.00 54 1019.0
20260507090054 48 0 0.0 2.6 0.00 0.00 0.00 54 1019.1
20260507085626 48 0 0.0 3.5 0.00 0.00 0.00 53 1019.1
20260507085056 49 0 0.0 3.5 0.00 0.00 0.00 51 1019.1
20260507084556 49 0 0.0 0.0 0.00 0.00 0.00 51 1019.0
20260507084056 49 0 0.0 0.0 0.00 0.00 0.00 51 1019.2
20260507083554 49 0 0.0 0.0 0.00 0.00 0.00 51 1019.1
20260507083053 49 0 0.0 0.0 0.00 0.00 0.00 50 1019.2
20260507082551 50 0 0.0 0.0 0.00 0.00 0.00 49 1019.3
20260507082057 50 0 0.0 0.0 0.00 0.00 0.00 48 1019.4
20260507081554 51 0 0.0 0.0 0.00 0.00 0.00 45 1019.2
20260507081055 52 0 0.0 0.0 0.00 0.00 0.00 44 1019.3
20260507080552 53 0 0.0 0.0 0.00 0.00 0.00 42 1019.4
20260507080111 53 0 0.0 0.0 0.00 0.00 0.00 40 1019.3
20260507075556 54 0 0.0 0.0 0.00 0.00 0.00 40 1019.3
20260507075056 54 0 0.0 0.0 0.00 0.00 0.00 39 1019.4
20260507074554 54 0 0.0 0.0 0.00 0.00 0.00 39 1019.3
20260507074055 53 0 0.0 0.0 0.00 0.00 0.00 40 1019.4
20260507073553 53 0 0.0 0.0 0.00 0.00 0.00 42 1019.3
20260507073054 53 0 0.0 0.0 0.00 0.00 0.00 42 1019.3
20260507072555 52 0 0.0 0.0 0.00 0.00 0.00 43 1019.4
20260507072054 52 0 0.0 2.6 0.00 0.00 0.00 44 1019.4
20260507071609 52 0 0.0 2.6 0.00 0.00 0.00 44 1019.4
20260507071058 53 0 0.0 2.6 0.00 0.00 0.00 44 1019.4
20260507070556 53 0 0.0 0.0 0.00 0.00 0.00 44 1019.3
20260507070055 52 0 0.0 2.6 0.00 0.00 0.00 43 1019.3
20260507065556 52 0 0.0 2.6 0.00 0.00 0.00 43 1019.3
20260507065055 52 236 0.0 4.3 0.00 0.00 0.00 43 1019.3
20260507064555 53 0 0.0 4.3 0.00 0.00 0.00 44 1019.3
20260507064056 53 236 2.6 4.3 0.00 0.00 0.00 42 1019.4
20260507063556 52 0 0.0 3.5 0.00 0.00 0.00 44 1019.3
20260507063056 53 0 0.0 4.3 0.00 0.00 0.00 44 1019.3
20260507062555 53 236 2.6 4.3 0.00 0.00 0.00 42 1019.3
20260507062055 53 236 0.0 3.5 0.00 0.00 0.00 42 1019.2
20260507061558 53 0 0.0 0.0 0.00 0.00 0.00 43 1019.5
20260507061055 52 0 0.0 0.0 0.00 0.00 0.00 44 1019.4
20260507060555 52 0 0.0 0.0 0.00 0.00 0.00 45 1019.3
20260507060057 52 0 0.0 0.0 0.00 0.00 0.00 46 1019.5
20260507055555 52 0 0.0 3.5 0.00 0.00 0.00 46 1019.5
20260507055052 52 0 1.7 3.5 0.00 0.00 0.00 45 1019.6
20260507054554 52 0 0.0 0.0 0.00 0.00 0.00 45 1019.5
20260507054055 52 0 0.0 0.0 0.00 0.00 0.00 46 1019.7
20260507053556 52 0 0.0 0.0 0.00 0.00 0.00 45 1019.5
20260507053120 53 0 0.0 0.0 0.00 0.00 0.00 45 1019.5
20260507052556 53 0 0.0 0.0 0.00 0.00 0.00 42 1019.5
20260507052054 53 0 0.0 0.0 0.00 0.00 0.00 43 1019.4
20260507051605 53 0 0.0 0.0 0.00 0.00 0.00 44 1019.5
20260507051055 54 0 0.0 0.0 0.00 0.00 0.00 43 1019.5
20260507050555 54 0 0.0 0.0 0.00 0.00 0.00 41 1019.5
20260507050054 54 0 0.0 0.0 0.00 0.00 0.00 40 1019.4
20260507045555 54 0 0.0 0.0 0.00 0.00 0.00 39 1019.3
20260507045052 54 0 0.0 0.0 0.00 0.00 0.00 40 1019.2
20260507044557 54 0 0.0 0.0 0.00 0.00 0.00 41 1019.1
20260507044052 54 0 0.0 0.0 0.00 0.00 0.00 41 1019.2
20260507043555 53 0 0.0 0.9 0.00 0.00 0.00 44 1019.1
20260507043055 54 0 0.0 0.9 0.00 0.00 0.00 43 1019.0
20260507042554 54 0 0.0 0.0 0.00 0.00 0.00 44 1018.9
20260507042059 54 0 0.0 0.0 0.00 0.00 0.00 43 1018.9
20260507041557 54 0 0.0 0.0 0.00 0.00 0.00 43 1018.8
20260507041056 54 0 0.0 0.0 0.00 0.00 0.00 42 1018.8
20260507040555 55 0 0.0 0.0 0.00 0.00 0.00 41 1018.8
20260507040100 55 0 0.0 0.0 0.00 0.00 0.00 40 1018.6
20260507035554 55 0 0.0 0.0 0.00 0.00 0.00 39 1018.6
20260507035056 55 0 0.0 0.0 0.00 0.00 0.00 39 1018.7
20260507034556 56 0 0.0 0.0 0.00 0.00 0.00 39 1018.5
20260507034055 56 0 0.0 0.0 0.00 0.00 0.00 38 1018.5
20260507033555 57 0 0.0 3.5 0.00 0.00 0.00 37 1018.5
20260507033055 57 0 0.9 3.5 0.00 0.00 0.00 35 1018.4
20260507032555 58 243 0.0 0.0 0.00 0.00 0.00 34 1018.4
20260507032052 58 0 0.0 0.0 0.00 0.00 0.00 33 1018.5
20260507031556 59 0 0.0 0.0 0.00 0.00 0.00 31 1018.4
20260507031055 60 0 0.0 0.0 0.00 0.00 0.00 30 1018.4
20260507030555 60 0 0.0 0.0 0.00 0.00 0.00 30 1018.3
20260507030057 61 0 0.0 0.0 0.00 0.00 0.00 29 1018.3
20260507025551 61 0 0.0 0.0 0.00 0.00 0.00 29 1018.3
20260507025056 62 0 0.0 0.0 0.00 0.00 0.00 30 1018.2
20260507024603 62 0 0.0 0.0 0.00 0.00 0.00 27 1018.1
20260507024055 63 0 0.0 0.0 0.00 0.00 0.00 27 1018.0
20260507023551 64 0 0.0 0.0 0.00 0.00 0.00 29 1018.0
20260507023054 64 0 0.0 0.0 0.00 0.00 0.00 28 1017.8
20260507022552 64 0 0.0 0.0 0.00 0.00 0.00 27 1017.7
20260507022056 64 0 0.0 0.0 0.00 0.00 0.00 27 1017.7
20260507021555 65 0 0.0 0.0 0.00 0.00 0.00 28 1017.6
20260507021051 65 0 0.0 0.0 0.00 0.00 0.00 27 1017.7
20260507020604 66 0 0.0 0.0 0.00 0.00 0.00 26 1017.6
20260507020057 66 0 0.0 0.0 0.00 0.00 0.00 24 1017.6
20260507015556 67 0 0.0 0.0 0.00 0.00 0.00 24 1017.5
20260507015055 68 0 0.0 0.0 0.00 0.00 0.00 22 1017.4
20260507014626 68 0 0.0 5.2 0.00 0.00 0.00 22 1017.4
20260507014054 68 0 0.0 5.2 0.00 0.00 0.00 22 1017.5
20260507013558 69 0 0.9 5.2 0.00 0.00 0.00 20 1017.4
20260507013059 69 342 0.0 4.3 0.00 0.00 0.00 20 1017.4
20260507012558 70 0 0.9 6.1 0.00 0.00 0.00 19 1017.3
20260507012056 71 299 2.6 8.7 0.00 0.00 0.00 17 1017.4
20260507011603 72 0 1.7 8.7 0.00 0.00 0.00 17 1017.3
20260507011054 72 288 2.6 9.6 0.00 0.00 0.00 16 1017.3
20260507010556 72 321 4.3 9.6 0.00 0.00 0.00 16 1017.3
20260507010112 72 325 4.3 9.6 0.00 0.00 0.00 16 1017.2
20260507005555 73 297 3.5 11.3 0.00 0.00 0.00 16 1017.2
20260507005058 73 352 3.5 11.3 0.00 0.00 0.00 16 1017.2
20260507004615 73 302 6.1 11.3 0.00 0.00 0.00 15 1017.1
20260507004054 74 289 2.6 11.3 0.00 0.00 0.00 16 1017.1
20260507003553 74 328 3.5 11.3 0.00 0.00 0.00 16 1017.1
20260507003103 74 340 0.9 10.4 0.00 0.00 0.00 17 1017.0
20260507002555 74 295 4.3 10.4 0.00 0.00 0.00 16 1017.0
20260507002055 74 319 2.6 7.8 0.00 0.00 0.00 17 1017.0
20260507001604 75 320 0.9 7.0 0.00 0.00 0.00 17 1016.9
20260507001051 75 337 0.0 6.1 0.00 0.00 0.00 16 1016.9
20260507000553 75 0 0.9 6.1 0.00 0.00 0.00 17 1016.9
20260507000057 75 0 1.7 6.1 0.00 0.00 0.00 16 1016.8
20260506235556 76 0 0.9 5.2 0.00 0.00 0.00 16 1016.8
20260506235054 75 0 0.9 7.0 0.00 0.00 0.00 16 1016.8
20260506234557 75 0 0.9 9.6 0.00 0.00 0.00 15 1016.7
20260506234058 75 0 2.6 9.6 0.00 0.00 0.00 15 1016.8
20260506233556 75 309 1.7 8.7 0.00 0.00 0.00 16 1016.8
20260506233058 75 282 5.2 10.4 0.00 0.00 0.00 15 1016.6
20260506232555 75 0 5.2 10.4 0.00 0.00 0.00 16 1016.6
20260506232055 75 295 1.7 7.8 0.00 0.00 0.00 14 1016.8
20260506231558 75 191 1.7 7.0 0.00 0.00 0.00 15 1016.8
20260506231056 74 0 0.9 8.7 0.00 0.00 0.00 17 1016.9
20260506230554 73 179 1.7 15.6 0.00 0.00 0.00 16 1016.8
20260506230059 74 0 7.8 15.6 0.00 0.00 0.00 15 1016.9
20260506225555 74 359 1.7 7.8 0.00 0.00 0.00 17 1016.3
20260506225052 74 0 2.6 6.1 0.00 0.00 0.00 17 1016.9
20260506224556 73 0 0.0 6.1 0.00 0.00 0.00 16 1016.9
20260506224055 73 0 2.6 6.1 0.00 0.00 0.00 16 1017.1
20260506223555 74 0 0.9 6.1 0.00 0.00 0.00 18 1017.3
20260506223100 74 0 0.0 3.5 0.00 0.00 0.00 17 1017.2
20260506222553 73 0 0.0 6.1 0.00 0.00 0.00 19 1017.3
20260506222056 72 0 0.0 6.1 0.00 0.00 0.00 18 1017.3
20260506221559 72 140 0.0 5.2 0.00 0.00 0.00 18 1017.3
20260506221054 72 22 0.0 6.1 0.00 0.00 0.00 19 1017.4
20260506220555 72 0 3.5 8.7 0.00 0.00 0.00 19 1017.5
20260506220056 72 72 4.3 8.7 0.00 0.00 0.00 19 1017.5
20260506215555 72 0 0.9 6.1 0.00 0.00 0.00 20 1017.6
20260506215055 72 0 0.0 4.3 0.00 0.00 0.00 21 1017.7
20260506214604 72 0 0.0 6.1 0.00 0.00 0.00 20 1017.6
20260506214055 72 0 0.9 6.1 0.00 0.00 0.00 19 1017.7
20260506213554 72 0 0.0 5.2 0.00 0.00 0.00 21 1017.7
20260506213053 72 54 0.0 5.2 0.00 0.00 0.00 22 1017.8
20260506212554 71 0 1.7 7.8 0.00 0.00 0.00 23 1017.8
20260506212054 71 0 0.0 8.7 0.00 0.00 0.00 22 1017.8
20260506211603 71 26 1.7 8.7 0.00 0.00 0.00 23 1017.8
20260506211055 71 25 0.0 7.8 0.00 0.00 0.00 25 1017.9
20260506210553 70 0 0.0 7.8 0.00 0.00 0.00 23 1017.9
20260506210056 70 340 0.9 7.8 0.00 0.00 0.00 23 1018.0
20260506205555 70 0 0.9 7.8 0.00 0.00 0.00 25 1018.1
20260506205054 70 332 2.6 13.9 0.00 0.00 0.00 25 1018.2
20260506204600 70 0 1.7 13.9 0.00 0.00 0.00 25 1018.2
20260506204052 70 360 6.1 13.9 0.00 0.00 0.00 25 1018.2
20260506203551 69 1 0.9 6.1 0.00 0.00 0.00 28 1018.2
20260506203059 69 0 0.0 6.1 0.00 0.00 0.00 25 1018.2
20260506202555 70 0 1.7 6.1 0.00 0.00 0.00 25 1018.3
20260506202055 69 0 0.0 9.6 0.00 0.00 0.00 26 1018.4
20260506201552 69 0 0.9 9.6 0.00 0.00 0.00 26 1018.4
20260506201052 70 359 3.5 7.8 0.00 0.00 0.00 27 1018.4
20260506200555 69 360 1.7 7.8 0.00 0.00 0.00 25 1018.4
20260506200103 69 0 4.3 7.8 0.00 0.00 0.00 25 1018.5
20260506195556 70 359 0.0 7.0 0.00 0.00 0.00 25 1018.5
20260506195055 70 169 0.9 7.0 0.00 0.00 0.00 26 1018.5
20260506194606 68 0 0.0 2.6 0.00 0.00 0.00 28 1018.6
20260506194051 68 0 0.0 6.1 0.00 0.00 0.00 28 1018.7
20260506193553 68 0 1.7 6.1 0.00 0.00 0.00 26 1018.8
20260506193059 68 352 3.5 6.1 0.00 0.00 0.00 27 1018.8
20260506192554 68 332 0.9 7.8 0.00 0.00 0.00 28 1018.8
20260506192054 67 353 2.6 9.6 0.00 0.00 0.00 29 1018.9
20260506191607 67 0 3.5 9.6 0.00 0.00 0.00 29 1019.0
20260506191054 67 1 4.3 7.8 0.00 0.00 0.00 30 1019.0
20260506190555 67 0 0.0 7.0 0.00 0.00 0.00 29 1019.1
20260506190059 66 9 1.7 9.6 0.00 0.00 0.00 30 1019.1
20260506185552 66 0 2.6 9.6 0.00 0.00 0.00 29 1019.2
20260506185055 66 15 2.6 9.6 0.00 0.00 0.00 32 1019.0
20260506184558 66 360 2.6 6.1 0.00 0.00 0.00 34 1019.1
20260506184056 66 0 0.0 7.0 0.00 0.00 0.00 35 1019.1
20260506183555 65 0 0.9 7.0 0.00 0.00 0.00 35 1019.2
20260506183123 65 357 4.3 7.0 0.00 0.00 0.00 35 1019.2
20260506182554 65 360 1.7 4.3 0.00 0.00 0.00 35 1019.3
20260506182054 65 0 1.7 5.2 0.00 0.00 0.00 35 1019.3
20260506181602 65 22 1.7 7.0 0.00 0.00 0.00 36 1019.3
20260506181056 66 39 0.9 7.0 0.00 0.00 0.00 36 1019.6
20260506180552 65 146 1.7 6.1 0.00 0.00 0.00 36 1019.5
20260506180115 64 117 0.9 7.0 0.00 0.00 0.00 37 1019.5
20260506175555 63 0 2.6 7.0 0.00 0.00 0.00 38 1019.5
20260506175053 63 0 2.6 7.0 0.00 0.00 0.00 39 1019.5
20260506174557 63 0 1.7 7.0 0.00 0.00 0.00 37 1019.4
20260506174053 64 19 0.9 4.3 0.00 0.00 0.00 38 1019.3
20260506173555 63 0 0.0 6.1 0.00 0.00 0.00 38 1019.5
20260506173126 62 0 0.0 6.1 0.00 0.00 0.00 38 1019.5
20260506172552 62 0 0.9 7.0 0.00 0.00 0.00 39 1019.5
20260506172053 62 0 1.7 7.0 0.00 0.00 0.00 40 1019.5
20260506171557 62 1 1.7 6.1 0.00 0.00 0.00 39 1019.5
20260506171056 62 0 0.9 6.1 0.00 0.00 0.00 40 1019.4
20260506170554 61 0 0.0 0.0 0.00 0.00 0.00 38 1019.5
20260506170057 61 0 0.0 5.2 0.00 0.00 0.00 40 1019.5
20260506165554 61 0 0.9 5.2 0.00 0.00 0.00 39 1019.4
20260506165056 61 0 0.9 5.2 0.00 0.00 0.00 39 1019.3
20260506164558 61 0 1.7 7.0 0.00 0.00 0.00 41 1019.3
20260506164053 61 59 3.5 7.0 0.00 0.00 0.00 41 1019.3
20260506163554 60 33 0.0 4.3 0.00 0.00 0.00 42 1019.3
20260506163106 60 0 0.0 4.3 0.00 0.00 0.00 42 1019.3
20260506162558 60 0 0.0 5.2 0.00 0.00 0.00 42 1019.3
20260506162054 60 0 0.0 6.1 0.00 0.00 0.00 43 1019.1
20260506161558 59 0 0.0 6.1 0.00 0.00 0.00 43 1019.2
20260506161054 59 8 3.5 6.1 0.00 0.00 0.00 43 1019.1
20260506160557 59 0 0.0 6.1 0.00 0.00 0.00 44 1019.1
20260506160103 59 19 0.9 6.1 0.00 0.00 0.00 44 1019.1
20260506155556 59 29 0.9 7.0 0.00 0.00 0.00 43 1019.1
20260506155056 58 0 0.9 7.0 0.00 0.00 0.00 45 1019.1
20260506154557 58 20 0.9 5.2 0.00 0.00 0.00 44 1019.1
20260506154054 58 7 0.0 6.1 0.00 0.00 0.00 48 1019.1
20260506153601 58 354 0.9 6.1 0.00 0.00 0.00 47 1019.2
20260506153058 58 0 0.9 5.2 0.00 0.00 0.00 48 1019.3
20260506152554 58 359 0.0 4.3 0.00 0.00 0.00 48 1019.2
20260506152056 57 0 0.0 4.3 0.00 0.00 0.00 50 1019.1
20260506151554 57 0 0.0 0.0 0.00 0.00 0.00 51 1019.3
20260506151054 56 0 0.0 0.0 0.00 0.00 0.00 53 1019.3
20260506150557 56 0 0.0 0.9 0.00 0.00 0.00 54 1019.3
20260506150100 56 0 0.0 0.9 0.00 0.00 0.00 55 1019.4
20260506145553 56 0 0.0 0.0 0.00 0.00 0.00 56 1019.3
20260506145056 55 0 0.0 3.5 0.00 0.00 0.00 57 1019.2
20260506144607 55 0 0.0 3.5 0.00 0.00 0.00 57 1019.2
20260506144056 55 0 0.0 3.5 0.00 0.00 0.00 57 1019.2
20260506143557 55 0 0.0 3.5 0.00 0.00 0.00 58 1019.3
20260506143059 55 0 0.0 3.5 0.00 0.00 0.00 61 1019.2
20260506142556 55 0 0.0 3.5 0.00 0.00 0.00 62 1019.2
20260506142054 54 0 0.0 4.3 0.00 0.00 0.00 60 1019.2
20260506141600 54 0 0.9 4.3 0.00 0.00 0.00 56 1019.3
20260506141054 54 1 0.9 4.3 0.00 0.00 0.00 56 1019.2
20260506140554 54 0 0.0 0.0 0.00 0.00 0.00 56 1019.1
20260506140055 53 0 0.0 0.0 0.00 0.00 0.00 57 1018.9
20260506135553 52 0 0.0 0.0 0.00 0.00 0.00 62 1018.9
20260506135056 51 0 0.0 0.0 0.00 0.00 0.00 65 1018.9
20260506134555 51 0 0.0 0.0 0.00 0.00 0.00 68 1018.9
20260506134054 50 0 0.0 0.0 0.00 0.00 0.00 71 1018.9
20260506133554 49 0 0.0 0.0 0.00 0.00 0.00 73 1018.9
20260506133101 48 0 0.0 0.0 0.00 0.00 0.00 75 1018.8
20260506132552 47 0 0.0 0.0 0.00 0.00 0.00 77 1018.8
20260506132056 47 0 0.0 0.0 0.00 0.00 0.00 77 1018.9
20260506131554 46 0 0.0 0.0 0.00 0.00 0.00 78 1018.8
20260506131053 46 0 0.0 0.0 0.00 0.00 0.00 78 1018.8